OpenBCM V1.08-5-g2f4a (Linux)

Packet Radio Mailbox

IZ3LSV

[San Dona' di P. JN]

 Login: GUEST





  
I0OJJ  > KEPS     02.11.25 01:26l 314 Lines 15000 Bytes #135 (0) @ AMSAT
BID : ORB25306.1
Read: GUEST
Subj: 2Line Orbital Elements 25306.AMSAT
Path: IZ3LSV<IK6IHL<IK7NXU<HB9ON<DK0WUE<PI8ZTM<CX2SA<EA2RCF<I0OJJ
Sent: 251102/0021z @:I0OJJ.ITA.EU [Rome] obcm1.08-11-2-gbfe9
From: I0OJJ @ I0OJJ.ITA.EU (Gustavo)
To:   KEPS @ AMSAT
X-Info: This message was generated automatically


QST de W1STR

AMSAT Orbital Elements for Amateur Satellites in TLE Format
From Orbital Analysis Office
New England Sci-Tech STEM Education Center
Natick MA November 02, 2025
To all radio amateurs


These element sets describe the orbits of various satellites 
in use by the amateur radio community. For details see:
www.amsat.org/keplerian-elements-formats/

A daily update of element sets is available at:
www.amsat.org/tle/daily-bulletin.txt
or without bulletin text:
www.amsat.org/tle/dailytle.txt


AO-07
1 07530U 74089B   25305.50003439 -.00000019  00000-0  17474-3 0  9999
2 07530 101.9981 311.3305 0012058 204.7394 309.0030 12.53692994331986
UO-11
1 14781U 84021B   25305.62807009  .00001928  00000-0  20597-3 0  9999
2 14781  97.7744 269.3157 0006738 206.1947 153.8931 14.89929452223232
AO-27
1 22825U 93061C   25305.60154524  .00000164  00000-0  79464-4 0  9995
2 22825  98.7203   7.7602 0009219  53.2638 306.9390 14.30853526674453
FO-29
1 24278U 96046B   25305.59133171 -.00000019  00000-0  19196-4 0  9994
2 24278  98.5501 180.2410 0349442 326.9492  31.0235 13.53258743442386
NOAA-15
1 25338U 98030A   25305.60210165  .00000210  00000-0  10393-3 0  9999
2 25338  98.5266 327.1903 0009205 297.4794  62.5451 14.27045255428835
GO-32
1 25397U 98043D   25305.47238684  .00000144  00000-0  82411-4 0  9996
2 25397  98.9883 287.7389 0002003 123.7690 236.3679 14.24359285418912
ISS
1 25544U 98067A   25305.52050362  .00011974  00000-0  21987-3 0  9990
2 25544  51.6344 346.5423 0004933   5.4437 354.6605 15.49679820536468
NO-44
1 26931U 01043C   25305.10489092  .00000284  00000-0  13725-3 0  9992
2 26931  67.0486 114.1445 0007148 272.2946  87.7338 14.31817460257797
SO-50
1 27607U 02058C   25304.90802068  .00002012  00000-0  26007-3 0  9997
2 27607  64.5513 114.8631 0069550 304.3539  55.0999 14.82152704230617
CO-55
1 27844U 03031E   25305.48970019  .00000464  00000-0  22060-3 0  9992
2 27844  98.6781 311.9224 0010537 123.3264 236.8925 14.24125923159266
CO-57
1 27848U 03031J   25305.01453055  .00000401  00000-0  19554-3 0  9996
2 27848  98.6810 311.3482 0010163 140.8620 219.3295 14.23441642158913
RS-22
1 27939U 03042A   25305.61472481  .00001754  00000-0  28258-3 0  9992
2 27939  98.3371 118.7265 0010242 270.6070 177.9946 14.72788774182047
CO-58
1 28895U 05043F   25304.97011440  .00002737  00000-0  44736-3 0  9990
2 28895  98.2695  91.3563 0013931 205.6479 154.4038 14.71637735 68171
CO-65
1 32785U 08021C   25305.59531585  .00007060  00000-0  48428-3 0  9994
2 32785  97.8041 278.1349 0011750  82.5888 277.6674 15.06280887950898
CO-66
1 32791U 08021J   25305.48012128  .00016602  00000-0  70229-3 0  9992
2 32791  97.7421 289.2749 0005580  55.0260 305.1499 15.23272380952517
RS-30
1 32953U 08025A   25305.58602177  .00000053  00000-0  30596-3 0  9992
2 32953  82.4998 137.0219 0019965  88.4373 271.8994 12.43170010791411
NOAA-19
1 33591U 09005A   25305.60789663  .00000066  00000-0  58955-4 0  9993
2 33591  98.9819  11.0166 0012994 317.1031  42.9126 14.13422734862330
SRMSAT
1 37841U 11058D   25305.53954764  .00000499  00000-0  12726-3 0  9999
2 37841  19.9734 357.3008 0011586 218.8587 287.6837 14.11489851725618
ZACUBE-1
1 39417U 13066B   25305.59894895  .00006383  00000-0  53039-3 0  9995
2 39417  97.7972 262.1188 0041391 288.4233  71.2492 14.98419398646617
Delfi-N3xt
1 39428U 13066N   25305.54569602  .00007892  00000-0  75943-3 0  9991
2 39428  97.8302 221.7271 0078660 242.0004 117.3240 14.90921988640658
GOMX-1
1 39430U 13066Q   25305.54087509  .00002569  00000-0  39703-3 0  9995
2 39430  97.6640 155.2430 0132425  88.1323 273.5044 14.68313812636495
LO-74
1 39440U 13066AA  25305.41685596  .00005808  00000-0  56753-3 0  9995
2 39440  97.8638 249.1777 0062343  62.5043 298.2494 14.91290007643013
AO-73
1 39444U 13066AE  25305.44596784  .00010846  00000-0  75685-3 0  9995
2 39444  97.8005 268.2617 0037639 256.8830 102.8194 15.04975488645356
DTUSAT-2
1 40030U 14033W   25305.48575736  .00010386  00000-0  62979-3 0  9992
2 40030  98.0718 284.6694 0006753 299.1871  60.8681 15.10743420618257
EO-80
1 40032U 14033Y   25305.43202257  .00010173  00000-0  61596-3 0  9992
2 40032  98.0599 284.0655 0006407 220.7136 139.3614 15.10806170618224
LILACSAT-2
1 40908U 15049K   25305.57890407  .00015525  00000-0  35344-3 0  9995
2 40908  97.4973 329.7357 0008518  12.6555 347.4904 15.43014546560559
IO-86
1 40931U 15052B   25151.18580175  .00001241  00000-0  78118-4 0  9996
2 40931   6.0006  24.0987 0012733 338.8432  21.1169 14.78805930523159
Horyu-4
1 41340U 16012D   25305.10063201  .00047830  00000-0  94415-3 0  9998
2 41340  30.9949 234.8349 0003883 169.6764 190.3965 15.45890769535091
Lapan A3
1 41603U 16040E   25305.65769043  .00004984  00000-0  16809-3 0  9992
2 41603  97.1430 304.7233 0012689 107.6670 252.5959 15.31075427519978
CAS-2T
1 41847U 16066G   25305.46611391  .00001994  00000-0  28784-3 0  9994
2 41847  98.4082  18.6099 0345507  99.9822 264.0540 14.43979187471920
TechnoSat
1 42829U 17042E   25305.52296844  .00005101  00000-0  38252-3 0  9994
2 42829  97.4044 107.5246 0019477 147.4507 212.7924 15.02934323452488
AO-91
1 43017U 17073E   25305.44430424  .00012450  00000-0  59888-3 0  9996
2 43017  97.5004 172.6074 0165719  32.5379 328.5933 15.07542671431017
S-Net D
1 43186U 18014G   25305.24743242  .00007390  00000-0  41477-3 0  9994
2 43186  97.5479 206.6942 0010899  86.5653 273.6825 15.13588270424243
S-Net B
1 43187U 18014H   25305.45316978  .00007237  00000-0  40641-3 0  9992
2 43187  97.5487 206.8763 0011642  82.0188 278.2364 15.13567423424276
S-Net A
1 43188U 18014J   25305.24730647  .00007355  00000-0  41269-3 0  9991
2 43188  97.5492 206.8427 0011472  83.3995 276.8542 15.13593645424245
S-Net C
1 43189U 18014K   25305.45599067  .00007236  00000-0  40631-3 0  9994
2 43189  97.5511 207.0879 0012910  76.5606 283.7063 15.13560915422824
Ten-Koh
1 43677U 18084G   25305.46367765  .00003663  00000-0  28874-3 0  9997
2 43677  98.0680 123.4485 0009395 143.5529 216.6335 15.01400828381975
PO-101
1 43678U 18084H   25305.60728171  .00002933  00000-0  24634-3 0  9995
2 43678  98.1098 127.4149 0007954 148.6230 211.5468 14.99146875382107
QO-100
1 43700U 18090A   25305.61563068  .00000155  00000-0  00000-0 0  9993
2 43700   0.0197 257.7594 0002123   0.0547  30.7729  1.00270221 25398
MinXSS-2
1 43758U 18099A   25305.43931712  .00025992  00000-0  84854-3 0  9998
2 43758  97.4859  12.3212 0010150  11.4552 348.6918 15.31698825379092
AO-95
1 43770U 18099N   25305.61455145  .00012391  00000-0  56888-3 0  9998
2 43770  97.4744   2.2310 0011357  71.6383 288.6086 15.20489539378564
SNUSat 2
1 43782U 18099AA  25304.66112306  .00011961  00000-0  60422-3 0  9995
2 43782  97.4427 356.8080 0011757  22.3558 337.8186 15.17170794378326
SnugLite
1 43784U 18099AC  25305.61183914  .00012728  00000-0  57891-3 0  9994
2 43784  97.4241 357.6530 0003692  36.0634 324.0850 15.20854979378657
ITASat 1
1 43786U 18099AE  25305.56634535  .00008950  00000-0  47926-3 0  9990
2 43786  97.4394 356.7496 0015067  67.6388 292.6439 15.15151405378396
EAGLET 1
1 43790U 18099AJ  25305.57519967  .00005354  00000-0  32812-3 0  9990
2 43790  97.4588 356.1748 0012840  56.2917 303.9535 15.10510809377943
ESEO
1 43792U 18099AL  25305.48150359  .00002717  00000-0  20465-3 0  9999
2 43792  97.4286 347.3420 0012969  33.6003 326.6043 15.03232237377580
JO-97
1 43803U 18099AX  25305.63357241  .00015291  00000-0  61464-3 0  9993
2 43803  97.4492   3.6265 0006661  10.0660 350.0710 15.24998741378845
Suomi 100
1 43804U 18099AY  25304.72501623  .00016546  00000-0  72997-3 0  9995
2 43804  97.4555   1.5464 0011515  12.5693 347.5827 15.21788918378593
ISAT
1 43879U 18111D   25305.53518452  .00034283  00000-0  92136-3 0  9995
2 43879  97.5878 223.7214 0010354  57.4960 302.7283 15.37781112375907
UWE-4
1 43880U 18111E   25305.51138969  .00023937  00000-0  78206-3 0  9992
2 43880  97.5828 220.9877 0013395  64.8194 295.4434 15.31655050375762
Sparrow
1 43881U 18111F   25305.57463324  .00037594  00000-0  95042-3 0  9996
2 43881  97.6059 227.2826 0009561  82.9726 277.2606 15.39650332376021
Prox-1
1 44339U 19036A   25305.36605921  .00016042  00000-0  18647-2 0  9990
2 44339  23.9954 188.4591 0007117 289.3929  70.5799 14.83641058339519
Taurus 1
1 44530U 19059C   25305.68889770  .00009082  00000-0  15862-2 0  9991
2 44530  98.6211  92.3165 0008734 302.1243  57.9113 14.68148856325218
Duchifat 3
1 44854U 19089C   25305.60549260  .00185572  00000-0  13378-2 0  9991
2 44854  36.9314 141.2216 0009304 338.0020  22.0345 15.72000675325607
TO-108
1 44881U 19093C   25305.62642503  .00001405  00000-0  16678-3 0  9991
2 44881  97.7801  18.1717 0015024 113.2221 247.0578 14.85957678317619
FloripaSat 1
1 44885U 19093G   25305.50843794  .00007724  00000-0  61771-3 0  9991
2 44885  97.8076  33.5249 0011728  98.8732 261.3820 15.00438382318468
RS-44
1 44909U 19096E   25305.50036484  .00000042  00000-0  13010-3 0  9990
2 44909  82.5180 131.0161 0216806 316.9383  41.4929 12.79745059273225
SALSAT
1 46495U 20068K   25305.60940946  .00009203  00000-0  36792-3 0  9991
2 46495  97.8762 290.7017 0011797  29.0096 331.1794 15.25291936280614
CSS (TIANHE-1)
1 48274U 21035A   25305.66377233  .00031710  00000-0  38072-3 0  9993
2 48274  41.4666 266.1848 0006788 305.6533  54.3673 15.60184648257615
TUBIN
1 48900U 21059X   25305.61980918  .00150633  00000-0  72496-3 0  9994
2 48900  97.6708 128.5037 0001547  43.9223 316.2167 15.82228500242777
CUTE
1 49263U 21088D   25305.18942652  .00028374  00000-0  42339-3 0  9993
2 49263  97.4391  26.2839 0006698  71.5312 288.6669 15.55008387226835
